Datum;Stunden;Zählung;Temperatur (°C);Min. Temperatur (°C);Max. Temperatur (°C);Windstärke (km/h);Regen (mm);Schnee (mm);Wetter
01.01.2017;00:00:00;1;;-;-;;;;
01.01.2017;01:00:00;4;;-;-;;;;
01.01.2017;02:00:00;8;;-;-;;;;
01.01.2017;03:00:00;4;;-;-;;;;
01.01.2017;04:00:00;5;;-;-;;;;
01.01.2017;05:00:00;5;;-;-;;;;
01.01.2017;06:00:00;0;;-;-;;;;
01.01.2017;07:00:00;2;;-;-;;;;
01.01.2017;08:00:00;2;;-;-;;;;
01.01.2017;09:00:00;2;;-;-;;;;
01.01.2017;10:00:00;9;;-;-;;;;
01.01.2017;11:00:00;7;;-;-;;;;
01.01.2017;12:00:00;8;;-;-;;;;
01.01.2017;13:00:00;17;;-;-;;;;
01.01.2017;14:00:00;13;;-;-;;;;
01.01.2017;15:00:00;13;;-;-;;;;
01.01.2017;16:00:00;17;;-;-;;;;
01.01.2017;17:00:00;9;;-;-;;;;
01.01.2017;18:00:00;12;;-;-;;;;
01.01.2017;19:00:00;6;;-;-;;;;
01.01.2017;20:00:00;3;;-;-;;;;
01.01.2017;21:00:00;8;;-;-;;;;
01.01.2017;22:00:00;1;;-;-;;;;
01.01.2017;23:00:00;2;;-;-;;;;
02.01.2017;00:00:00;0;;-;-;;;;
02.01.2017;01:00:00;2;;-;-;;;;
02.01.2017;02:00:00;0;;-;-;;;;
02.01.2017;03:00:00;0;;-;-;;;;
02.01.2017;04:00:00;1;;-;-;;;;
02.01.2017;05:00:00;4;;-;-;;;;
02.01.2017;06:00:00;1;;-;-;;;;
02.01.2017;07:00:00;13;;-;-;;;;
02.01.2017;08:00:00;18;;-;-;;;;
02.01.2017;09:00:00;23;;-;-;;;;
02.01.2017;10:00:00;20;;-;-;;;;
02.01.2017;11:00:00;23;;-;-;;;;
02.01.2017;12:00:00;26;;-;-;;;;
02.01.2017;13:00:00;40;;-;-;;;;
02.01.2017;14:00:00;43;;-;-;;;;
02.01.2017;15:00:00;30;;-;-;;;;
02.01.2017;16:00:00;32;;-;-;;;;
02.01.2017;17:00:00;28;;-;-;;;;
02.01.2017;18:00:00;21;;-;-;;;;
02.01.2017;19:00:00;14;;-;-;;;;
02.01.2017;20:00:00;9;;-;-;;;;
02.01.2017;21:00:00;3;;-;-;;;;
02.01.2017;22:00:00;3;;-;-;;;;
02.01.2017;23:00:00;0;;-;-;;;;
03.01.2017;00:00:00;0;;-;-;;;;
03.01.2017;01:00:00;1;;-;-;;;;
03.01.2017;02:00:00;0;;-;-;;;;
03.01.2017;03:00:00;1;;-;-;;;;
03.01.2017;04:00:00;1;;-;-;;;;
03.01.2017;05:00:00;1;;-;-;;;;
03.01.2017;06:00:00;7;;-;-;;;;
03.01.2017;07:00:00;20;;-;-;;;;
03.01.2017;08:00:00;40;;-;-;;;;
03.01.2017;09:00:00;36;;-;-;;;;
03.01.2017;10:00:00;34;;-;-;;;;
03.01.2017;11:00:00;19;;-;-;;;;
03.01.2017;12:00:00;41;;-;-;;;;
03.01.2017;13:00:00;35;;-;-;;;;
03.01.2017;14:00:00;41;;-;-;;;;
03.01.2017;15:00:00;39;;-;-;;;;
03.01.2017;16:00:00;26;;-;-;;;;
03.01.2017;17:00:00;26;;-;-;;;;
03.01.2017;18:00:00;21;;-;-;;;;
03.01.2017;19:00:00;8;;-;-;;;;
03.01.2017;20:00:00;5;;-;-;;;;
03.01.2017;21:00:00;5;;-;-;;;;
03.01.2017;22:00:00;2;;-;-;;;;
03.01.2017;23:00:00;2;;-;-;;;;
04.01.2017;00:00:00;1;;-;-;;;;
04.01.2017;01:00:00;2;;-;-;;;;
04.01.2017;02:00:00;0;;-;-;;;;
04.01.2017;03:00:00;1;;-;-;;;;
04.01.2017;04:00:00;2;;-;-;;;;
04.01.2017;05:00:00;2;;-;-;;;;
04.01.2017;06:00:00;6;;-;-;;;;
04.01.2017;07:00:00;17;;-;-;;;;
04.01.2017;08:00:00;28;;-;-;;;;
04.01.2017;09:00:00;21;;-;-;;;;
04.01.2017;10:00:00;26;;-;-;;;;
04.01.2017;11:00:00;39;;-;-;;;;
04.01.2017;12:00:00;30;;-;-;;;;
04.01.2017;13:00:00;34;;-;-;;;;
04.01.2017;14:00:00;38;;-;-;;;;
04.01.2017;15:00:00;27;;-;-;;;;
04.01.2017;16:00:00;27;;-;-;;;;
04.01.2017;17:00:00;24;;-;-;;;;
04.01.2017;18:00:00;21;;-;-;;;;
04.01.2017;19:00:00;20;;-;-;;;;
04.01.2017;20:00:00;16;;-;-;;;;
04.01.2017;21:00:00;10;;-;-;;;;
04.01.2017;22:00:00;5;;-;-;;;;
04.01.2017;23:00:00;0;;-;-;;;;
05.01.2017;00:00:00;1;;-;-;;;;
05.01.2017;01:00:00;2;;-;-;;;;
05.01.2017;02:00:00;0;;-;-;;;;
05.01.2017;03:00:00;1;;-;-;;;;
05.01.2017;04:00:00;1;;-;-;;;;
05.01.2017;05:00:00;3;;-;-;;;;
05.01.2017;06:00:00;13;;-;-;;;;
05.01.2017;07:00:00;21;;-;-;;;;
05.01.2017;08:00:00;38;;-;-;;;;
05.01.2017;09:00:00;36;;-;-;;;;
05.01.2017;10:00:00;15;;-;-;;;;
05.01.2017;11:00:00;35;;-;-;;;;
05.01.2017;12:00:00;30;;-;-;;;;
05.01.2017;13:00:00;33;;-;-;;;;
05.01.2017;14:00:00;37;;-;-;;;;
05.01.2017;15:00:00;39;;-;-;;;;
05.01.2017;16:00:00;46;;-;-;;;;
05.01.2017;17:00:00;45;;-;-;;;;
05.01.2017;18:00:00;28;;-;-;;;;
05.01.2017;19:00:00;26;;-;-;;;;
05.01.2017;20:00:00;16;;-;-;;;;
05.01.2017;21:00:00;6;;-;-;;;;
05.01.2017;22:00:00;4;;-;-;;;;
05.01.2017;23:00:00;0;;-;-;;;;
06.01.2017;00:00:00;1;;-;-;;;;
06.01.2017;01:00:00;1;;-;-;;;;
06.01.2017;02:00:00;0;;-;-;;;;
06.01.2017;03:00:00;1;;-;-;;;;
06.01.2017;04:00:00;1;;-;-;;;;
06.01.2017;05:00:00;1;;-;-;;;;
06.01.2017;06:00:00;7;;-;-;;;;
06.01.2017;07:00:00;18;;-;-;;;;
06.01.2017;08:00:00;31;;-;-;;;;
06.01.2017;09:00:00;28;;-;-;;;;
06.01.2017;10:00:00;27;;-;-;;;;
06.01.2017;11:00:00;24;;-;-;;;;
06.01.2017;12:00:00;44;;-;-;;;;
06.01.2017;13:00:00;39;;-;-;;;;
06.01.2017;14:00:00;38;;-;-;;;;
06.01.2017;15:00:00;27;;-;-;;;;
06.01.2017;16:00:00;38;;-;-;;;;
06.01.2017;17:00:00;31;;-;-;;;;
06.01.2017;18:00:00;23;;-;-;;;;
06.01.2017;19:00:00;21;;-;-;;;;
06.01.2017;20:00:00;12;;-;-;;;;
06.01.2017;21:00:00;8;;-;-;;;;
06.01.2017;22:00:00;3;;-;-;;;;
06.01.2017;23:00:00;7;;-;-;;;;
07.01.2017;00:00:00;4;;-;-;;;;
07.01.2017;01:00:00;2;;-;-;;;;
07.01.2017;02:00:00;2;;-;-;;;;
07.01.2017;03:00:00;1;;-;-;;;;
07.01.2017;04:00:00;1;;-;-;;;;
07.01.2017;05:00:00;1;;-;-;;;;
07.01.2017;06:00:00;2;;-;-;;;;
07.01.2017;07:00:00;0;;-;-;;;;
07.01.2017;08:00:00;10;;-;-;;;;
07.01.2017;09:00:00;21;;-;-;;;;
07.01.2017;10:00:00;20;;-;-;;;;
07.01.2017;11:00:00;38;;-;-;;;;
07.01.2017;12:00:00;38;;-;-;;;;
07.01.2017;13:00:00;29;;-;-;;;;
07.01.2017;14:00:00;32;;-;-;;;;
07.01.2017;15:00:00;28;;-;-;;;;
07.01.2017;16:00:00;9;;-;-;;;;
07.01.2017;17:00:00;9;;-;-;;;;
07.01.2017;18:00:00;3;;-;-;;;;
07.01.2017;19:00:00;1;;-;-;;;;
07.01.2017;20:00:00;3;;-;-;;;;
07.01.2017;21:00:00;4;;-;-;;;;
07.01.2017;22:00:00;2;;-;-;;;;
07.01.2017;23:00:00;3;;-;-;;;;
08.01.2017;00:00:00;0;;-;-;;;;
08.01.2017;01:00:00;2;;-;-;;;;
08.01.2017;02:00:00;0;;-;-;;;;
08.01.2017;03:00:00;0;;-;-;;;;
08.01.2017;04:00:00;1;;-;-;;;;
08.01.2017;05:00:00;2;;-;-;;;;
08.01.2017;06:00:00;0;;-;-;;;;
08.01.2017;07:00:00;0;;-;-;;;;
08.01.2017;08:00:00;2;;-;-;;;;
08.01.2017;09:00:00;9;;-;-;;;;
08.01.2017;10:00:00;6;;-;-;;;;
08.01.2017;11:00:00;1;;-;-;;;;
08.01.2017;12:00:00;4;;-;-;;;;
08.01.2017;13:00:00;15;;-;-;;;;
08.01.2017;14:00:00;14;;-;-;;;;
08.01.2017;15:00:00;16;;-;-;;;;
08.01.2017;16:00:00;13;;-;-;;;;
08.01.2017;17:00:00;10;;-;-;;;;
08.01.2017;18:00:00;8;;-;-;;;;
08.01.2017;19:00:00;12;;-;-;;;;
08.01.2017;20:00:00;5;;-;-;;;;
08.01.2017;21:00:00;7;;-;-;;;;
08.01.2017;22:00:00;2;;-;-;;;;
08.01.2017;23:00:00;1;;-;-;;;;
09.01.2017;00:00:00;0;;-;-;;;;
09.01.2017;01:00:00;1;;-;-;;;;
09.01.2017;02:00:00;0;;-;-;;;;
09.01.2017;03:00:00;0;;-;-;;;;
09.01.2017;04:00:00;2;;-;-;;;;
09.01.2017;05:00:00;1;;-;-;;;;
09.01.2017;06:00:00;11;;-;-;;;;
09.01.2017;07:00:00;18;;-;-;;;;
09.01.2017;08:00:00;43;;-;-;;;;
09.01.2017;09:00:00;43;;-;-;;;;
09.01.2017;10:00:00;38;;-;-;;;;
09.01.2017;11:00:00;30;;-;-;;;;
09.01.2017;12:00:00;38;;-;-;;;;
09.01.2017;13:00:00;37;;-;-;;;;
09.01.2017;14:00:00;40;;-;-;;;;
09.01.2017;15:00:00;30;;-;-;;;;
09.01.2017;16:00:00;29;;-;-;;;;
09.01.2017;17:00:00;24;;-;-;;;;
09.01.2017;18:00:00;23;;-;-;;;;
09.01.2017;19:00:00;25;;-;-;;;;
09.01.2017;20:00:00;9;;-;-;;;;
09.01.2017;21:00:00;7;;-;-;;;;
09.01.2017;22:00:00;2;;-;-;;;;
09.01.2017;23:00:00;1;;-;-;;;;
10.01.2017;00:00:00;0;;-;-;;;;
10.01.2017;01:00:00;1;;-;-;;;;
10.01.2017;02:00:00;0;;-;-;;;;
10.01.2017;03:00:00;0;;-;-;;;;
10.01.2017;04:00:00;1;;-;-;;;;
10.01.2017;05:00:00;2;;-;-;;;;
10.01.2017;06:00:00;5;;-;-;;;;
10.01.2017;07:00:00;18;;-;-;;;;
10.01.2017;08:00:00;42;;-;-;;;;
10.01.2017;09:00:00;35;;-;-;;;;
10.01.2017;10:00:00;22;;-;-;;;;
10.01.2017;11:00:00;32;;-;-;;;;
10.01.2017;12:00:00;22;;-;-;;;;
10.01.2017;13:00:00;26;;-;-;;;;
10.01.2017;14:00:00;31;;-;-;;;;
10.01.2017;15:00:00;33;;-;-;;;;
10.01.2017;16:00:00;36;;-;-;;;;
10.01.2017;17:00:00;33;;-;-;;;;
10.01.2017;18:00:00;30;;-;-;;;;
10.01.2017;19:00:00;17;;-;-;;;;
10.01.2017;20:00:00;15;;-;-;;;;
10.01.2017;21:00:00;6;;-;-;;;;
10.01.2017;22:00:00;7;;-;-;;;;
10.01.2017;23:00:00;2;;-;-;;;;
11.01.2017;00:00:00;1;;-;-;;;;
11.01.2017;01:00:00;4;;-;-;;;;
11.01.2017;02:00:00;1;;-;-;;;;
11.01.2017;03:00:00;1;;-;-;;;;
11.01.2017;04:00:00;2;;-;-;;;;
11.01.2017;05:00:00;1;;-;-;;;;
11.01.2017;06:00:00;8;;-;-;;;;
11.01.2017;07:00:00;28;;-;-;;;;
11.01.2017;08:00:00;69;;-;-;;;;
11.01.2017;09:00:00;46;;-;-;;;;
11.01.2017;10:00:00;27;;-;-;;;;
11.01.2017;11:00:00;18;;-;-;;;;
11.01.2017;12:00:00;22;;-;-;;;;
11.01.2017;13:00:00;15;;-;-;;;;
11.01.2017;14:00:00;24;;-;-;;;;
11.01.2017;15:00:00;33;;-;-;;;;
11.01.2017;16:00:00;24;;-;-;;;;
11.01.2017;17:00:00;38;;-;-;;;;
11.01.2017;18:00:00;33;;-;-;;;;
11.01.2017;19:00:00;18;;-;-;;;;
11.01.2017;20:00:00;8;;-;-;;;;
11.01.2017;21:00:00;5;;-;-;;;;
11.01.2017;22:00:00;0;;-;-;;;;
11.01.2017;23:00:00;6;;-;-;;;;
12.01.2017;00:00:00;1;;-;-;;;;
12.01.2017;01:00:00;0;;-;-;;;;
12.01.2017;02:00:00;0;;-;-;;;;
12.01.2017;03:00:00;1;;-;-;;;;
12.01.2017;04:00:00;3;;-;-;;;;
12.01.2017;05:00:00;1;;-;-;;;;
12.01.2017;06:00:00;4;;-;-;;;;
12.01.2017;07:00:00;24;;-;-;;;;
12.01.2017;08:00:00;44;;-;-;;;;
12.01.2017;09:00:00;51;;-;-;;;;
12.01.2017;10:00:00;32;;-;-;;;;
12.01.2017;11:00:00;38;;-;-;;;;
12.01.2017;12:00:00;43;;-;-;;;;
12.01.2017;13:00:00;45;;-;-;;;;
12.01.2017;14:00:00;42;;-;-;;;;
12.01.2017;15:00:00;44;;-;-;;;;
12.01.2017;16:00:00;36;;-;-;;;;
12.01.2017;17:00:00;42;;-;-;;;;
12.01.2017;18:00:00;29;;-;-;;;;
12.01.2017;19:00:00;12;;-;-;;;;
12.01.2017;20:00:00;6;;-;-;;;;
12.01.2017;21:00:00;5;;-;-;;;;
12.01.2017;22:00:00;2;;-;-;;;;
12.01.2017;23:00:00;2;;-;-;;;;
13.01.2017;00:00:00;3;;-;-;;;;
13.01.2017;01:00:00;0;;-;-;;;;
13.01.2017;02:00:00;0;;-;-;;;;
13.01.2017;03:00:00;0;;-;-;;;;
13.01.2017;04:00:00;0;;-;-;;;;
13.01.2017;05:00:00;1;;-;-;;;;
13.01.2017;06:00:00;5;;-;-;;;;
13.01.2017;07:00:00;11;;-;-;;;;
13.01.2017;08:00:00;35;;-;-;;;;
13.01.2017;09:00:00;25;;-;-;;;;
13.01.2017;10:00:00;22;;-;-;;;;
13.01.2017;11:00:00;29;;-;-;;;;
13.01.2017;12:00:00;21;;-;-;;;;
13.01.2017;13:00:00;14;;-;-;;;;
13.01.2017;14:00:00;22;;-;-;;;;
13.01.2017;15:00:00;32;;-;-;;;;
13.01.2017;16:00:00;29;;-;-;;;;
13.01.2017;17:00:00;30;;-;-;;;;
13.01.2017;18:00:00;24;;-;-;;;;
13.01.2017;19:00:00;15;;-;-;;;;
13.01.2017;20:00:00;8;;-;-;;;;
13.01.2017;21:00:00;5;;-;-;;;;
13.01.2017;22:00:00;4;;-;-;;;;
13.01.2017;23:00:00;5;;-;-;;;;
14.01.2017;00:00:00;2;;-;-;;;;
14.01.2017;01:00:00;1;;-;-;;;;
14.01.2017;02:00:00;1;;-;-;;;;
14.01.2017;03:00:00;0;;-;-;;;;
14.01.2017;04:00:00;2;;-;-;;;;
14.01.2017;05:00:00;1;;-;-;;;;
14.01.2017;06:00:00;2;;-;-;;;;
14.01.2017;07:00:00;1;;-;-;;;;
14.01.2017;08:00:00;6;;-;-;;;;
14.01.2017;09:00:00;20;;-;-;;;;
14.01.2017;10:00:00;37;;-;-;;;;
14.01.2017;11:00:00;30;;-;-;;;;
14.01.2017;12:00:00;47;;-;-;;;;
14.01.2017;13:00:00;35;;-;-;;;;
14.01.2017;14:00:00;57;;-;-;;;;
14.01.2017;15:00:00;40;;-;-;;;;
14.01.2017;16:00:00;6;;-;-;;;;
14.01.2017;17:00:00;17;;-;-;;;;
14.01.2017;18:00:00;15;;-;-;;;;
14.01.2017;19:00:00;16;;-;-;;;;
14.01.2017;20:00:00;4;;-;-;;;;
14.01.2017;21:00:00;6;;-;-;;;;
14.01.2017;22:00:00;6;;-;-;;;;
14.01.2017;23:00:00;5;;-;-;;;;
15.01.2017;00:00:00;3;;-;-;;;;
15.01.2017;01:00:00;0;;-;-;;;;
15.01.2017;02:00:00;2;;-;-;;;;
15.01.2017;03:00:00;1;;-;-;;;;
15.01.2017;04:00:00;0;;-;-;;;;
15.01.2017;05:00:00;1;;-;-;;;;
15.01.2017;06:00:00;0;;-;-;;;;
15.01.2017;07:00:00;0;;-;-;;;;
15.01.2017;08:00:00;1;;-;-;;;;
15.01.2017;09:00:00;14;;-;-;;;;
15.01.2017;10:00:00;23;;-;-;;;;
15.01.2017;11:00:00;5;;-;-;;;;
15.01.2017;12:00:00;12;;-;-;;;;
15.01.2017;13:00:00;8;;-;-;;;;
15.01.2017;14:00:00;12;;-;-;;;;
15.01.2017;15:00:00;10;;-;-;;;;
15.01.2017;16:00:00;14;;-;-;;;;
15.01.2017;17:00:00;16;;-;-;;;;
15.01.2017;18:00:00;6;;-;-;;;;
15.01.2017;19:00:00;15;;-;-;;;;
15.01.2017;20:00:00;7;;-;-;;;;
15.01.2017;21:00:00;4;;-;-;;;;
15.01.2017;22:00:00;2;;-;-;;;;
15.01.2017;23:00:00;0;;-;-;;;;
16.01.2017;00:00:00;1;;-;-;;;;
16.01.2017;01:00:00;2;;-;-;;;;
16.01.2017;02:00:00;0;;-;-;;;;
16.01.2017;03:00:00;3;;-;-;;;;
16.01.2017;04:00:00;2;;-;-;;;;
16.01.2017;05:00:00;4;;-;-;;;;
16.01.2017;06:00:00;5;;-;-;;;;
16.01.2017;07:00:00;22;;-;-;;;;
16.01.2017;08:00:00;44;;-;-;;;;
16.01.2017;09:00:00;40;;-;-;;;;
16.01.2017;10:00:00;34;;-;-;;;;
16.01.2017;11:00:00;37;;-;-;;;;
16.01.2017;12:00:00;26;;-;-;;;;
16.01.2017;13:00:00;40;;-;-;;;;
16.01.2017;14:00:00;39;;-;-;;;;
16.01.2017;15:00:00;35;;-;-;;;;
16.01.2017;16:00:00;25;;-;-;;;;
16.01.2017;17:00:00;54;;-;-;;;;
16.01.2017;18:00:00;39;;-;-;;;;
16.01.2017;19:00:00;10;;-;-;;;;
16.01.2017;20:00:00;11;;-;-;;;;
16.01.2017;21:00:00;6;;-;-;;;;
16.01.2017;22:00:00;6;;-;-;;;;
16.01.2017;23:00:00;2;;-;-;;;;
17.01.2017;00:00:00;1;;-;-;;;;
17.01.2017;01:00:00;0;;-;-;;;;
17.01.2017;02:00:00;2;;-;-;;;;
17.01.2017;03:00:00;1;;-;-;;;;
17.01.2017;04:00:00;2;;-;-;;;;
17.01.2017;05:00:00;5;;-;-;;;;
17.01.2017;06:00:00;4;;-;-;;;;
17.01.2017;07:00:00;26;;-;-;;;;
17.01.2017;08:00:00;42;;-;-;;;;
17.01.2017;09:00:00;36;;-;-;;;;
17.01.2017;10:00:00;28;;-;-;;;;
17.01.2017;11:00:00;19;;-;-;;;;
17.01.2017;12:00:00;26;;-;-;;;;
17.01.2017;13:00:00;46;;-;-;;;;
17.01.2017;14:00:00;50;;-;-;;;;
17.01.2017;15:00:00;36;;-;-;;;;
17.01.2017;16:00:00;30;;-;-;;;;
17.01.2017;17:00:00;41;;-;-;;;;
17.01.2017;18:00:00;38;;-;-;;;;
17.01.2017;19:00:00;19;;-;-;;;;
17.01.2017;20:00:00;17;;-;-;;;;
17.01.2017;21:00:00;11;;-;-;;;;
17.01.2017;22:00:00;3;;-;-;;;;
17.01.2017;23:00:00;3;;-;-;;;;
18.01.2017;00:00:00;1;;-;-;;;;
18.01.2017;01:00:00;1;;-;-;;;;
18.01.2017;02:00:00;0;;-;-;;;;
18.01.2017;03:00:00;1;;-;-;;;;
18.01.2017;04:00:00;3;;-;-;;;;
18.01.2017;05:00:00;5;;-;-;;;;
18.01.2017;06:00:00;7;;-;-;;;;
18.01.2017;07:00:00;24;;-;-;;;;
18.01.2017;08:00:00;40;;-;-;;;;
18.01.2017;09:00:00;35;;-;-;;;;
18.01.2017;10:00:00;15;;-;-;;;;
18.01.2017;11:00:00;30;;-;-;;;;
18.01.2017;12:00:00;25;;-;-;;;;
18.01.2017;13:00:00;32;;-;-;;;;
18.01.2017;14:00:00;39;;-;-;;;;
18.01.2017;15:00:00;30;;-;-;;;;
18.01.2017;16:00:00;35;;-;-;;;;
18.01.2017;17:00:00;33;;-;-;;;;
18.01.2017;18:00:00;45;;-;-;;;;
18.01.2017;19:00:00;30;;-;-;;;;
18.01.2017;20:00:00;15;;-;-;;;;
18.01.2017;21:00:00;11;;-;-;;;;
18.01.2017;22:00:00;7;;-;-;;;;
18.01.2017;23:00:00;2;;-;-;;;;
19.01.2017;00:00:00;1;;-;-;;;;
19.01.2017;01:00:00;0;;-;-;;;;
19.01.2017;02:00:00;1;;-;-;;;;
19.01.2017;03:00:00;1;;-;-;;;;
19.01.2017;04:00:00;5;;-;-;;;;
19.01.2017;05:00:00;5;;-;-;;;;
19.01.2017;06:00:00;6;;-;-;;;;
19.01.2017;07:00:00;32;;-;-;;;;
19.01.2017;08:00:00;43;;-;-;;;;
19.01.2017;09:00:00;31;;-;-;;;;
19.01.2017;10:00:00;19;;-;-;;;;
19.01.2017;11:00:00;20;;-;-;;;;
19.01.2017;12:00:00;42;;-;-;;;;
19.01.2017;13:00:00;41;;-;-;;;;
19.01.2017;14:00:00;31;;-;-;;;;
19.01.2017;15:00:00;34;;-;-;;;;
19.01.2017;16:00:00;44;;-;-;;;;
19.01.2017;17:00:00;42;;-;-;;;;
19.01.2017;18:00:00;37;;-;-;;;;
19.01.2017;19:00:00;27;;-;-;;;;
19.01.2017;20:00:00;15;;-;-;;;;
19.01.2017;21:00:00;13;;-;-;;;;
19.01.2017;22:00:00;7;;-;-;;;;
19.01.2017;23:00:00;3;;-;-;;;;
20.01.2017;00:00:00;3;;-;-;;;;
20.01.2017;01:00:00;1;;-;-;;;;
20.01.2017;02:00:00;2;;-;-;;;;
20.01.2017;03:00:00;0;;-;-;;;;
20.01.2017;04:00:00;4;;-;-;;;;
20.01.2017;05:00:00;2;;-;-;;;;
20.01.2017;06:00:00;6;;-;-;;;;
20.01.2017;07:00:00;20;;-;-;;;;
20.01.2017;08:00:00;42;;-;-;;;;
20.01.2017;09:00:00;38;;-;-;;;;
20.01.2017;10:00:00;29;;-;-;;;;
20.01.2017;11:00:00;37;;-;-;;;;
20.01.2017;12:00:00;52;;-;-;;;;
20.01.2017;13:00:00;37;;-;-;;;;
20.01.2017;14:00:00;46;;-;-;;;;
20.01.2017;15:00:00;42;;-;-;;;;
20.01.2017;16:00:00;50;;-;-;;;;
20.01.2017;17:00:00;29;;-;-;;;;
20.01.2017;18:00:00;31;;-;-;;;;
20.01.2017;19:00:00;27;;-;-;;;;
20.01.2017;20:00:00;11;;-;-;;;;
20.01.2017;21:00:00;5;;-;-;;;;
20.01.2017;22:00:00;4;;-;-;;;;
20.01.2017;23:00:00;5;;-;-;;;;
21.01.2017;00:00:00;7;;-;-;;;;
21.01.2017;01:00:00;3;;-;-;;;;
21.01.2017;02:00:00;1;;-;-;;;;
21.01.2017;03:00:00;0;;-;-;;;;
21.01.2017;04:00:00;1;;-;-;;;;
21.01.2017;05:00:00;2;;-;-;;;;
21.01.2017;06:00:00;4;;-;-;;;;
21.01.2017;07:00:00;2;;-;-;;;;
21.01.2017;08:00:00;12;;-;-;;;;
21.01.2017;09:00:00;22;;-;-;;;;
21.01.2017;10:00:00;25;;-;-;;;;
21.01.2017;11:00:00;41;;-;-;;;;
21.01.2017;12:00:00;54;;-;-;;;;
21.01.2017;13:00:00;55;;-;-;;;;
21.01.2017;14:00:00;48;;-;-;;;;
21.01.2017;15:00:00;29;;-;-;;;;
21.01.2017;16:00:00;46;;-;-;;;;
21.01.2017;17:00:00;20;;-;-;;;;
21.01.2017;18:00:00;25;;-;-;;;;
21.01.2017;19:00:00;17;;-;-;;;;
21.01.2017;20:00:00;4;;-;-;;;;
21.01.2017;21:00:00;11;;-;-;;;;
21.01.2017;22:00:00;10;;-;-;;;;
21.01.2017;23:00:00;2;;-;-;;;;
22.01.2017;00:00:00;1;;-;-;;;;
22.01.2017;01:00:00;3;;-;-;;;;
22.01.2017;02:00:00;3;;-;-;;;;
22.01.2017;03:00:00;1;;-;-;;;;
22.01.2017;04:00:00;1;;-;-;;;;
22.01.2017;05:00:00;2;;-;-;;;;
22.01.2017;06:00:00;1;;-;-;;;;
22.01.2017;07:00:00;3;;-;-;;;;
22.01.2017;08:00:00;2;;-;-;;;;
22.01.2017;09:00:00;4;;-;-;;;;
22.01.2017;10:00:00;13;;-;-;;;;
22.01.2017;11:00:00;9;;-;-;;;;
22.01.2017;12:00:00;17;;-;-;;;;
22.01.2017;13:00:00;22;;-;-;;;;
22.01.2017;14:00:00;19;;-;-;;;;
22.01.2017;15:00:00;15;;-;-;;;;
22.01.2017;16:00:00;11;;-;-;;;;
22.01.2017;17:00:00;16;;-;-;;;;
22.01.2017;18:00:00;14;;-;-;;;;
22.01.2017;19:00:00;9;;-;-;;;;
22.01.2017;20:00:00;11;;-;-;;;;
22.01.2017;21:00:00;3;;-;-;;;;
22.01.2017;22:00:00;1;;-;-;;;;
22.01.2017;23:00:00;5;;-;-;;;;
23.01.2017;00:00:00;2;;-;-;;;;
23.01.2017;01:00:00;0;;-;-;;;;
23.01.2017;02:00:00;0;;-;-;;;;
23.01.2017;03:00:00;1;;-;-;;;;
23.01.2017;04:00:00;1;;-;-;;;;
23.01.2017;05:00:00;4;;-;-;;;;
23.01.2017;06:00:00;8;;-;-;;;;
23.01.2017;07:00:00;34;;-;-;;;;
23.01.2017;08:00:00;49;;-;-;;;;
23.01.2017;09:00:00;39;;-;-;;;;
23.01.2017;10:00:00;35;;-;-;;;;
23.01.2017;11:00:00;32;;-;-;;;;
23.01.2017;12:00:00;39;;-;-;;;;
23.01.2017;13:00:00;36;;-;-;;;;
23.01.2017;14:00:00;26;;-;-;;;;
23.01.2017;15:00:00;21;;-;-;;;;
23.01.2017;16:00:00;24;;-;-;;;;
23.01.2017;17:00:00;40;;-;-;;;;
23.01.2017;18:00:00;33;;-;-;;;;
23.01.2017;19:00:00;21;;-;-;;;;
23.01.2017;20:00:00;13;;-;-;;;;
23.01.2017;21:00:00;5;;-;-;;;;
23.01.2017;22:00:00;4;;-;-;;;;
23.01.2017;23:00:00;0;;-;-;;;;
24.01.2017;00:00:00;0;;-;-;;;;
24.01.2017;01:00:00;0;;-;-;;;;
24.01.2017;02:00:00;0;;-;-;;;;
24.01.2017;03:00:00;3;;-;-;;;;
24.01.2017;04:00:00;2;;-;-;;;;
24.01.2017;05:00:00;4;;-;-;;;;
24.01.2017;06:00:00;6;;-;-;;;;
24.01.2017;07:00:00;14;;-;-;;;;
24.01.2017;08:00:00;36;;-;-;;;;
24.01.2017;09:00:00;34;;-;-;;;;
24.01.2017;10:00:00;23;;-;-;;;;
24.01.2017;11:00:00;24;;-;-;;;;
24.01.2017;12:00:00;36;;-;-;;;;
24.01.2017;13:00:00;35;;-;-;;;;
24.01.2017;14:00:00;30;;-;-;;;;
24.01.2017;15:00:00;18;;-;-;;;;
24.01.2017;16:00:00;29;;-;-;;;;
24.01.2017;17:00:00;41;;-;-;;;;
24.01.2017;18:00:00;32;;-;-;;;;
24.01.2017;19:00:00;23;;-;-;;;;
24.01.2017;20:00:00;7;;-;-;;;;
24.01.2017;21:00:00;13;;-;-;;;;
24.01.2017;22:00:00;2;;-;-;;;;
24.01.2017;23:00:00;0;;-;-;;;;
25.01.2017;00:00:00;0;;-;-;;;;
25.01.2017;01:00:00;0;;-;-;;;;
25.01.2017;02:00:00;0;;-;-;;;;
25.01.2017;03:00:00;3;;-;-;;;;
25.01.2017;04:00:00;3;;-;-;;;;
25.01.2017;05:00:00;4;;-;-;;;;
25.01.2017;06:00:00;9;;-;-;;;;
25.01.2017;07:00:00;26;;-;-;;;;
25.01.2017;08:00:00;47;;-;-;;;;
25.01.2017;09:00:00;31;;-;-;;;;
25.01.2017;10:00:00;31;;-;-;;;;
25.01.2017;11:00:00;33;;-;-;;;;
25.01.2017;12:00:00;43;;-;-;;;;
25.01.2017;13:00:00;39;;-;-;;;;
25.01.2017;14:00:00;37;;-;-;;;;
25.01.2017;15:00:00;29;;-;-;;;;
25.01.2017;16:00:00;40;;-;-;;;;
25.01.2017;17:00:00;42;;-;-;;;;
25.01.2017;18:00:00;27;;-;-;;;;
25.01.2017;19:00:00;34;;-;-;;;;
25.01.2017;20:00:00;12;;-;-;;;;
25.01.2017;21:00:00;7;;-;-;;;;
25.01.2017;22:00:00;8;;-;-;;;;
25.01.2017;23:00:00;4;;-;-;;;;
26.01.2017;00:00:00;1;;-;-;;;;
26.01.2017;01:00:00;1;;-;-;;;;
26.01.2017;02:00:00;2;;-;-;;;;
26.01.2017;03:00:00;2;;-;-;;;;
26.01.2017;04:00:00;3;;-;-;;;;
26.01.2017;05:00:00;7;;-;-;;;;
26.01.2017;06:00:00;7;;-;-;;;;
26.01.2017;07:00:00;33;;-;-;;;;
26.01.2017;08:00:00;54;;-;-;;;;
26.01.2017;09:00:00;46;;-;-;;;;
26.01.2017;10:00:00;31;;-;-;;;;
26.01.2017;11:00:00;32;;-;-;;;;
26.01.2017;12:00:00;37;;-;-;;;;
26.01.2017;13:00:00;38;;-;-;;;;
26.01.2017;14:00:00;48;;-;-;;;;
26.01.2017;15:00:00;42;;-;-;;;;
26.01.2017;16:00:00;41;;-;-;;;;
26.01.2017;17:00:00;41;;-;-;;;;
26.01.2017;18:00:00;44;;-;-;;;;
26.01.2017;19:00:00;25;;-;-;;;;
26.01.2017;20:00:00;8;;-;-;;;;
26.01.2017;21:00:00;12;;-;-;;;;
26.01.2017;22:00:00;15;;-;-;;;;
26.01.2017;23:00:00;1;;-;-;;;;
27.01.2017;00:00:00;2;;-;-;;;;
27.01.2017;01:00:00;0;;-;-;;;;
27.01.2017;02:00:00;1;;-;-;;;;
27.01.2017;03:00:00;2;;-;-;;;;
27.01.2017;04:00:00;5;;-;-;;;;
27.01.2017;05:00:00;5;;-;-;;;;
27.01.2017;06:00:00;11;;-;-;;;;
27.01.2017;07:00:00;20;;-;-;;;;
27.01.2017;08:00:00;48;;-;-;;;;
27.01.2017;09:00:00;43;;-;-;;;;
27.01.2017;10:00:00;29;;-;-;;;;
27.01.2017;11:00:00;32;;-;-;;;;
27.01.2017;12:00:00;37;;-;-;;;;
27.01.2017;13:00:00;52;;-;-;;;;
27.01.2017;14:00:00;51;;-;-;;;;
27.01.2017;15:00:00;39;;-;-;;;;
27.01.2017;16:00:00;57;;-;-;;;;
27.01.2017;17:00:00;36;;-;-;;;;
27.01.2017;18:00:00;44;;-;-;;;;
27.01.2017;19:00:00;12;;-;-;;;;
27.01.2017;20:00:00;13;;-;-;;;;
27.01.2017;21:00:00;11;;-;-;;;;
27.01.2017;22:00:00;10;;-;-;;;;
27.01.2017;23:00:00;4;;-;-;;;;
28.01.2017;00:00:00;4;;-;-;;;;
28.01.2017;01:00:00;2;;-;-;;;;
28.01.2017;02:00:00;2;;-;-;;;;
28.01.2017;03:00:00;0;;-;-;;;;
28.01.2017;04:00:00;1;;-;-;;;;
28.01.2017;05:00:00;1;;-;-;;;;
28.01.2017;06:00:00;1;;-;-;;;;
28.01.2017;07:00:00;4;;-;-;;;;
28.01.2017;08:00:00;10;;-;-;;;;
28.01.2017;09:00:00;34;;-;-;;;;
28.01.2017;10:00:00;30;;-;-;;;;
28.01.2017;11:00:00;46;;-;-;;;;
28.01.2017;12:00:00;53;;-;-;;;;
28.01.2017;13:00:00;66;;-;-;;;;
28.01.2017;14:00:00;57;;-;-;;;;
28.01.2017;15:00:00;49;;-;-;;;;
28.01.2017;16:00:00;28;;-;-;;;;
28.01.2017;17:00:00;23;;-;-;;;;
28.01.2017;18:00:00;17;;-;-;;;;
28.01.2017;19:00:00;17;;-;-;;;;
28.01.2017;20:00:00;10;;-;-;;;;
28.01.2017;21:00:00;8;;-;-;;;;
28.01.2017;22:00:00;6;;-;-;;;;
28.01.2017;23:00:00;2;;-;-;;;;
29.01.2017;00:00:00;1;;-;-;;;;
29.01.2017;01:00:00;1;;-;-;;;;
29.01.2017;02:00:00;0;;-;-;;;;
29.01.2017;03:00:00;0;;-;-;;;;
29.01.2017;04:00:00;4;;-;-;;;;
29.01.2017;05:00:00;1;;-;-;;;;
29.01.2017;06:00:00;1;;-;-;;;;
29.01.2017;07:00:00;2;;-;-;;;;
29.01.2017;08:00:00;6;;-;-;;;;
29.01.2017;09:00:00;9;;-;-;;;;
29.01.2017;10:00:00;13;;-;-;;;;
29.01.2017;11:00:00;16;;-;-;;;;
29.01.2017;12:00:00;22;;-;-;;;;
29.01.2017;13:00:00;26;;-;-;;;;
29.01.2017;14:00:00;34;;-;-;;;;
29.01.2017;15:00:00;16;;-;-;;;;
29.01.2017;16:00:00;22;;-;-;;;;
29.01.2017;17:00:00;14;;-;-;;;;
29.01.2017;18:00:00;8;;-;-;;;;
29.01.2017;19:00:00;20;;-;-;;;;
29.01.2017;20:00:00;12;;-;-;;;;
29.01.2017;21:00:00;10;;-;-;;;;
29.01.2017;22:00:00;2;;-;-;;;;
29.01.2017;23:00:00;2;;-;-;;;;
30.01.2017;00:00:00;2;;-;-;;;;
30.01.2017;01:00:00;0;;-;-;;;;
30.01.2017;02:00:00;0;;-;-;;;;
30.01.2017;03:00:00;1;;-;-;;;;
30.01.2017;04:00:00;2;;-;-;;;;
30.01.2017;05:00:00;3;;-;-;;;;
30.01.2017;06:00:00;6;;-;-;;;;
30.01.2017;07:00:00;18;;-;-;;;;
30.01.2017;08:00:00;30;;-;-;;;;
30.01.2017;09:00:00;28;;-;-;;;;
30.01.2017;10:00:00;11;;-;-;;;;
30.01.2017;11:00:00;19;;-;-;;;;
30.01.2017;12:00:00;18;;-;-;;;;
30.01.2017;13:00:00;21;;-;-;;;;
30.01.2017;14:00:00;29;;-;-;;;;
30.01.2017;15:00:00;15;;-;-;;;;
30.01.2017;16:00:00;30;;-;-;;;;
30.01.2017;17:00:00;26;;-;-;;;;
30.01.2017;18:00:00;26;;-;-;;;;
30.01.2017;19:00:00;27;;-;-;;;;
30.01.2017;20:00:00;12;;-;-;;;;
30.01.2017;21:00:00;10;;-;-;;;;
30.01.2017;22:00:00;2;;-;-;;;;
30.01.2017;23:00:00;1;;-;-;;;;
31.01.2017;00:00:00;1;;-;-;;;;
31.01.2017;01:00:00;0;;-;-;;;;
31.01.2017;02:00:00;1;;-;-;;;;
31.01.2017;03:00:00;0;;-;-;;;;
31.01.2017;04:00:00;1;;-;-;;;;
31.01.2017;05:00:00;5;;-;-;;;;
31.01.2017;06:00:00;2;;-;-;;;;
31.01.2017;07:00:00;22;;-;-;;;;
31.01.2017;08:00:00;62;;-;-;;;;
31.01.2017;09:00:00;51;;-;-;;;;
31.01.2017;10:00:00;22;;-;-;;;;
31.01.2017;11:00:00;31;;-;-;;;;
31.01.2017;12:00:00;31;;-;-;;;;